Location: Mapua
(41.2500°S, 173.1000°E)
Time: 14:46:22
(UTC+12:00)

Envisat - Visible Passes

Search period start: 18 May 2021 00:00
Search period end: 28 May 2021 00:00
Orbit: 764 x 766 km, 98.1° (Epoch: 17 May)

Date Brightness Start Highest point End Pass type
(mag) Time Alt. Az. Time Alt. Az. Time Alt. Az.
18 May 5.7 03:40:50 10° E 03:42:37 15° ESE 03:42:37 15° ESE visible
18 May 2.9 05:17:05 10° N 05:22:10 70° WNW 05:22:48 62° WSW visible
18 May 5.2 19:05:41 10° SSW 19:09:48 25° WSW 19:13:53 10° WNW visible
19 May 3.6 04:40:26 10° NNE 04:45:20 54° ESE 04:45:20 54° ESE visible
19 May 4.3 06:21:17 10° NW 06:24:44 18° W 06:25:31 17° W visible
19 May 3.9 18:28:14 10° S 18:33:14 51° WSW 18:38:10 10° NNW visible
20 May 5.1 04:04:41 10° ENE 04:07:53 24° E 04:07:53 24° E visible
20 May 3.4 05:42:51 10° NNW 05:47:36 39° W 05:48:04 38° W visible
20 May 3.0 17:51:18 10° SSE 17:56:29 73° ENE 18:01:34 10° N visible
20 May 5.8 19:32:02 10° SSW 19:34:51 15° WSW 19:37:39 10° W visible
21 May 6.1 03:30:25 10° E 03:30:27 10° E 03:30:27 10° E visible
21 May 2.9 05:05:35 10° NNE 05:10:38 87° NW 05:10:38 87° NW visible
21 May 4.8 18:53:59 10° S 18:58:26 30° WSW 19:02:52 10° NW visible
22 May 4.2 04:29:12 10° NE 04:33:13 40° E 04:33:13 40° E visible
22 May 4.1 06:09:10 10° NW 06:13:10 23° W 06:13:23 23° W visible
22 May 3.4 18:16:42 10° S 18:21:49 65° WSW 18:26:52 10° NNW visible
23 May 5.5 03:53:46 10° ENE 03:55:48 18° E 03:55:48 18° E visible
23 May 3.1 05:31:10 10° N 05:35:59 50° WNW 05:35:59 50° WNW visible
23 May 3.2 17:39:54 10° SSE 17:45:00 57° E 17:50:01 10° N visible
23 May 5.5 19:20:04 10° SSW 19:23:32 19° WSW 19:26:59 10° WNW visible
24 May 3.3 04:54:10 10° NNE 04:58:33 63° NE 04:58:33 63° NE visible
24 May 4.7 06:36:33 10° WNW 06:38:45 13° W 06:38:45 13° W visible
24 May 4.4 18:42:19 10° S 18:47:04 38° WSW 18:51:45 10° NW visible
25 May 4.8 04:18:02 10° NE 04:21:09 29° E 04:21:09 29° E visible
25 May 3.8 05:57:13 10° NNW 06:01:21 29° W 06:01:21 29° W visible
25 May 3.1 18:05:12 10° S 18:10:23 83° WSW 18:15:30 10° NNW visible
25 May 5.9 19:47:14 10° SW 19:48:32 11° WSW 19:49:50 10° WSW visible
26 May 5.9 03:43:00 10° E 03:43:46 12° E 03:43:46 12° E visible
26 May 3.1 05:19:33 10° N 05:23:57 58° NW 05:23:57 58° NW visible
26 May 5.2 19:08:14 10° SSW 19:12:12 23° WSW 19:16:09 10° WNW visible
27 May 3.9 04:42:49 10° NNE 04:46:33 45° ENE 04:46:33 45° ENE visible
27 May 4.5 06:24:01 10° NW 06:26:44 16° W 06:26:44 16° W visible
27 May 4.0 18:30:44 10° S 18:35:40 48° WSW 18:40:33 10° NW visible
